Flag for Canada Weather past 2 weeks in Burnaby, British Columbia, Canada

Now
68 °F

Passing clouds.


Feels Like: 68 °F
Forecast: 56 / 78 °F
Wind: 3 mph from North

Location: Vancouver International Air-Port

Current Time: Jul 28, 2015 at 10:33:25 PM

Latest Report: Jul 28, 2015 at 10:00 PM


Visibility: 20 mi

Pressure: 30.18 "Hg

Humidity: 69%

Dew point: 57 °F

Location of BurnabyLocation

Historic Weather in Burnaby — Graph

°F

Burnaby temperature yesterday

Maximum temperature yesterday: 70 °F (at 6:00 PM)
Minimum temperature yesterday: 55 °F (at 3:00 AM)
Average temperature yesterday: 63 °F

Past Weeks' High & Low Weather Summary

 TemperatureHumidityPressure
High81 °F (Jul 19, 6:00 PM)94% (Jul 24, 10:00 AM)30.28 "Hg (Jul 24, 10:00 AM)
Low55 °F (Jul 27, 3:00 AM)46% (Jul 16, 7:00 PM)29.85 "Hg (Jul 22, 8:00 PM)
Average65 °F72%30.02 "Hg
* Reported Jul 13 10:00 PM — Jul 28 10:00 PM, Burnaby, Weather by CustomWeather, © 2015

Note: Actual official high and low records may vary slightly from our data, if they occured in-between our weather recording intervals... More about our weather records

Advertising

Burnaby weather history for previous 24 hours

 ConditionsComfort  
Time TempWeatherWind HumidityBarometerVisibility
10:00 PM
Tue, Jul 28
68 °FPassing clouds.3 mph69%30.18 "Hg20 mi
9:00 PM68 °FPassing clouds.2 mph60%30.17 "Hg30 mi
8:00 PM72 °FPassing clouds.3 mph53%30.17 "Hg30 mi
7:00 PM72 °FPassing clouds.3 mph53%30.18 "Hg30 mi
6:00 PM72 °FPassing clouds.7 mph57%30.19 "Hg30 mi
5:00 PM72 °FScattered clouds.7 mph61%30.19 "Hg30 mi
4:00 PM72 °FPartly sunny.9 mph61%30.21 "Hg30 mi
3:00 PM70 °FScattered clouds.8 mph73%30.23 "Hg30 mi
2:00 PM68 °FPassing clouds.9 mph73%30.24 "Hg30 mi
1:00 PM70 °FPassing clouds.10 mph69%30.25 "Hg30 mi
12:00 PM70 °FPassing clouds.12 mph69%30.26 "Hg30 mi
11:00 AM70 °FPassing clouds.6 mph57%30.27 "Hg30 mi
10:00 AM68 °FPassing clouds.6 mph60%30.27 "Hg30 mi
9:00 AM64 °FPartly sunny.9 mph68%30.28 "Hg30 mi
8:00 AM63 °FPartly sunny.6 mph77%30.28 "Hg25 mi
7:00 AM61 °FScattered clouds.10 mph77%30.27 "Hg30 mi
6:00 AM57 °FPassing clouds.7 mph82%30.26 "Hg30 mi
5:00 AM57 °FPassing clouds.7 mph88%30.25 "Hg30 mi
4:00 AM59 °FPassing clouds.7 mph82%30.24 "Hg15 mi
3:00 AM59 °FCool.7 mph82%30.23 "Hg15 mi
2:00 AM61 °FPartly cloudy.8 mph77%30.22 "Hg15 mi
1:00 AM61 °FPartly cloudy.7 mph77%30.21 "Hg20 mi
12:00 AM63 °FPartly cloudy.8 mph73%30.21 "Hg20 mi
11:00 PM
Mon, Jul 27
63 °FPassing clouds.5 mph73%30.20 "Hg20 mi
10:00 PM64 °FPassing clouds.5 mph68%30.20 "Hg30 mi
Weather by CustomWeather, © 2015

See weather overviewHow to use our weather pages